Location: Dayton
(39.7590°N, 84.1920°W)
Time: 09:52:10
(UTC-04:00)

Daily predictions for brighter satellites

Satellite Brightness Start Highest point End
(mag) Time Altitude Azimuth Time Altitude Azimuth Time Altitude Azimuth
Aureole 2 Rocket 2.8 21:35:25 10° NNW 21:39:33 78° ENE 21:43:25 10° SSE
Cosmos 2297 Rocket 2.2 21:36:47 10° SSW 21:42:23 69° ESE 21:48:01 10° NNE
Cosmos 1842 Rocket 3.6 21:40:04 10° N 21:44:26 63° E 21:48:45 10° SSE
Meteor 1-29 3.1 21:41:36 10° NNE 21:44:58 51° E 21:48:19 10° S
Envisat 3.2 21:41:53 10° S 21:46:57 78° WSW 21:52:04 10° NNW
Cosmos 1727 Rocket 4.1 21:41:01 10° S 21:47:11 60° E 21:53:26 10° NNE
Helios 1A 3.0 21:44:04 10° SSE 21:48:13 85° ENE 21:52:23 10° NNW
Cosmos 1340 Rocket 3.3 21:45:44 10° SSE 21:49:31 42° E 21:53:21 10° NNE
Helios 1B rocket 2.4 21:48:01 10° NNE 21:52:12 85° ESE 21:56:20 10° SSW
Meteor 2-5 Rocket 4.4 21:47:20 10° SSW 21:53:07 62° WNW 21:58:48 10° N
Cosmos 1242 Rocket 4.4 21:50:54 10° NNE 21:53:28 17° ENE 21:56:00 10° ESE
USA 32 4.2 21:49:17 10° SSE 21:54:23 56° E 21:59:32 10° NNE
Cosmos 1980 4.0 21:55:20 10° NNW 22:01:00 69° WSW 22:06:37 10° SSE
Cosmos 1140 Rocket 3.4 21:56:01 10° SSW 22:01:11 80° ESE 22:06:21 10° NNE
Cosmos 1867 4.2 22:01:38 10° S 22:06:31 35° ESE 22:11:26 10° NE
ATLAS 5 CENTAUR R/B 1.9 22:02:13 10° SSW 22:06:38 48° ESE 22:11:23 10° NE
Atlas Centaur 2 2.6 22:05:31 10° SW 22:08:05 19° S 22:09:45 14° SSE
Lacrosse 4 Rocket 2.8 22:04:36 10° SW 22:08:38 43° WNW 22:12:47 10° NNE
Cosmos 2237 Rocket 2.6 22:06:07 10° NNW 22:11:39 60° WSW 22:17:10 10° S
Tiangong 1 0.7 22:11:37 10° WSW 22:14:25 87° NNW 22:17:12 10° ENE
Cosmos 1726 4.1 22:15:51 10° NE 22:18:06 15° ENE 22:19:32 13° E
YAOGAN 6 3.1 22:14:50 10° S 22:18:23 57° W 22:22:01 10° NNW
Milstar 3 Cent rocket 4.1 22:13:00 10° WSW 22:19:51 39° S 22:31:25 13° ESE
Cosmos 1076 Rocket 3.8 22:16:28 11° SSE 22:20:31 48° E 22:24:43 10° NNE
Okean 3 Rocket 3.6 22:18:04 10° S 22:22:33 73° E 22:27:03 10° NNE
SL-8 R/B 4.5 22:20:21 10° WNW 22:24:49 40° SW 22:28:07 17° SSE
Cosmos 2227 Rocket 3.6 22:20:21 10° SW 22:25:41 42° WNW 22:31:03 10° N
SL-08 RB Rocket 4.3 22:24:05 18° SE 22:27:09 43° ENE 22:31:29 10° N
Cosmos 1850 Rocket 3.9 22:23:30 10° SSW 22:28:40 81° ESE 22:33:53 10° NNE
Cosmos 1356 Rocket 3.6 22:25:40 13° S 22:29:20 55° E 22:33:32 10° NNE
Cosmos 1908 3.4 22:25:40 10° N 22:29:30 57° E 22:31:56 21° SSE
Cosmos 2221 2.5 22:27:23 10° N 22:31:49 88° E 22:35:20 16° S
Cosmos 1674 2.6 22:29:46 13° S 22:33:00 69° E 22:36:46 10° NNE
SL-16 R/B 2.2 22:28:43 10° NNW 22:34:25 87° ENE 22:38:38 19° SSE
H-2A R/B 2.7 22:31:57 19° SE 22:35:25 44° ENE 22:40:32 10° N
YAOGAN 11 4.2 22:34:30 20° SSE 22:37:31 66° ENE 22:42:02 10° N
KORONAS-FOTON 3.9 22:37:55 22° SSE 22:40:10 53° E 22:43:53 10° NNE
SPOT 5 2.9 22:39:45 21° SSE 22:42:58 73° ENE 22:47:59 10° N
USA 234 3.2 22:36:36 10° NE 22:43:10 89° SE 22:49:44 10° SW
ARGOS 3.1 22:39:06 18° SSE 22:43:11 81° ENE 22:48:38 10° N
Cosmos 1818 3.6 22:38:21 10° NNW 22:43:49 79° ENE 22:47:13 24° SE
USA 245 2.8 22:42:55 31° SSE 22:44:19 72° ENE 22:48:06 10° N
Cosmos 1766 Rocket 3.6 22:41:52 20° SSE 22:44:42 59° E 22:48:58 10° NNE
ERS-1 Rocket 3.5 22:41:41 12° S 22:46:15 56° W 22:51:13 10° NNW
Lacrosse 5 3.2 22:42:47 10° NNW 22:47:17 31° NE 22:51:05 13° E
MetOp-A 4.3 22:43:19 15° S 22:47:45 72° WSW 22:53:07 10° NNW
Cosmos 2228 Rocket 4.2 22:46:10 10° NNE 22:50:15 31° ENE 22:51:56 24° ESE
Cosmos 1741 Rocket 4.5 22:47:05 10° SSW 22:52:22 64° WNW 22:57:40 10° NNE
Cosmos 2333 Rocket 4.5 22:49:02 10° WNW 22:52:41 18° W 22:56:19 10° SW
Cosmos 1328 Rocket 4.3 22:51:21 10° N 22:55:23 36° ENE 22:56:48 28° ESE
Cosmos 2061 Rocket 4.0 22:49:51 10° N 22:56:16 90° ESE 23:01:00 20° S
Cosmos 2100 Rocket 4.2 22:52:09 10° N 22:58:25 74° W 23:03:34 16° S
RESURS DK-1 3.4 22:55:18 10° N 22:59:06 34° ENE 23:00:38 25° E
Cosmos 1459 Rocket 4.1 22:54:57 10° N 23:01:16 75° W 23:06:02 18° S
Cosmos 1743 Rocket 4.1 23:00:07 32° SE 23:01:20 39° E 23:05:22 10° NNE
H-2A R/B 3.4 23:00:30 23° E 23:01:53 27° ENE 23:05:30 10° NNE
Cosmos 371 Rocket 4.3 22:58:05 10° N 23:02:28 34° ENE 23:04:22 25° ESE
Meteor 2-2 Rocket 4.4 22:58:20 10° N 23:04:02 59° ENE 23:07:00 29° SSE
DMSP B5D2-2 4.2 22:59:47 10° NNE 23:04:56 55° E 23:07:30 28° SSE
Cosmos 2227 4.1 23:01:00 10° SSW 23:06:42 75° ESE 23:12:25 10° NNE
Cosmos 2123 Rocket 3.9 23:05:26 23° S 23:09:25 69° E 23:15:35 10° NNE
EO 1 Delta rocket 3.8 23:08:12 29° SSE 23:10:40 87° ENE 23:15:17 10° N
Cosmos 1151 Rocket 4.1 23:07:12 10° NNE 23:11:06 30° ENE 23:12:01 27° E
Cosmos 2173 Rocket 4.4 23:07:09 10° NNW 23:13:11 61° W 23:17:52 18° SSW
Landsat 7 3.7 23:16:33 37° SSE 23:18:27 79° ENE 23:23:14 10° N
SL-14 R/B 3.2 23:19:16 47° S 23:20:20 76° E 23:24:18 10° N
Cosmos 1328 3.7 23:22:18 47° S 23:23:24 81° E 23:27:27 10° N
SL-19 R/B 4.3 23:20:20 10° NNE 23:25:32 53° ESE 23:27:22 37° SSE
CZ-4 R/B 4.3 23:21:12 10° NNE 23:25:47 40° E 23:26:26 38° ESE
IGS 5A 3.5 23:26:45 49° SE 23:27:37 63° ENE 23:31:44 10° N
Cosmos 1242 Rocket 4.4 23:25:19 10° NW 23:28:27 26° W 23:30:10 18° SW
SPOT 1/Viking Rocket 4.0 23:27:38 27° SSW 23:30:13 54° W 23:35:17 10° NNW
Cosmos 1814 Rocket 4.0 23:27:52 10° NNW 23:33:14 73° ENE 23:34:58 43° SE
Terra 1.7 23:31:59 46° SSE 23:33:24 78° ENE 23:38:10 10° N
Cosmos 1725 Rocket 4.0 23:27:33 10° N 23:33:51 84° W 23:36:52 33° S
ERBS 4.0 23:31:56 10° NNW 23:34:48 25° NE 23:35:29 23° ENE
Cosmos 1486 Rocket 4.0 23:33:16 41° S 23:35:00 64° ESE 23:40:15 10° NNE
Cosmos 1300 2.9 23:35:20 10° NNW 23:39:08 62° W 23:39:44 53° SW
Cosmos 2263 Rocket 2.4 23:38:53 43° SE 23:39:54 48° ESE 23:45:16 10° NE
Cosmos 1626 2.6 23:46:13 48° ENE 23:46:13 48° ENE 23:49:22 10° NNE
deb Chang Zheng 4 3.5 23:42:11 10° NNE 23:46:34 74° ESE 23:47:10 63° SSE
Cosmos 841 Rocket 3.7 23:43:31 10° NNW 23:48:44 61° ENE 23:49:58 47° ESE
Cosmos 220 Rocket 4.2 23:48:02 38° SW 23:49:35 68° WNW 23:54:00 10° NNE
Tiangong 1 2.7 23:47:30 10° WNW 23:49:18 30° NW 23:49:18 30° NW
Cosmos 332 Rocket 4.0 23:46:42 10° NNW 23:51:33 63° WSW 23:52:42 48° SSW
ATLAS 5 CENTAUR R/B 4.2 23:47:46 10° W 23:51:35 23° NW 23:55:41 10° NNE
Cosmos 1763 Rocket 3.3 23:47:59 10° NNW 23:53:08 86° ENE 23:54:12 57° SSE
Spot 4 4.0 23:52:27 52° ESE 23:53:22 63° ENE 23:58:10 10° N
Cosmos 1726 3.6 23:50:16 10° NNW 23:53:28 28° W 23:54:09 26° WSW
